{"data":{"norad_id":27465,"intl_designator":"2002-036B","name":"COSMOS 2391","alt_names":[],"object_type":"PAYLOAD","status":"ACTIVE","operator":null,"country":"CIS","launch_date":"2002-07-08","launch_site_code":"PLMSC","launch_vehicle":null,"mission":null,"orbit_class":"UNKNOWN","rcs_meters":0.8826,"size_class":null,"mass_kg":null,"dimensions":null,"purposes":[],"wikipedia_slug":null,"has_3d_model":false,"image_url":null,"decayed_at":null,"tle_current":{"epoch":"2026-05-25T03:42:47.820960Z","epoch_age_seconds":54902,"freshness":"FRESH","line1":"1 27465U 02036B   26145.15472015  .00000000  00000+0 -68911-4 0  9997","line2":"2 27465  82.4854 355.9029 0025698 304.6989  55.1671 12.44945558 84980","mean_motion":12.44945558,"eccentricity":0.0025698,"inclination_deg":82.4854,"raan_deg":355.9029,"arg_perigee_deg":304.6989,"mean_anomaly_deg":55.1671,"bstar":-6.8911e-5,"rev_number":8498,"period_min":115.66770857943,"perigee_km":1465.4993089883,"apogee_km":1505.9163258118,"semimajor_km":7863.8448174,"source":"CELESTRAK","updated_at":"2026-05-25T13:37:55.029887Z"}}}